CW4132 Weather Reports


time (UTC)temp
C
wind
direction
speed
KPH
gust
KPH
rain 1hr
cm
rain 24hr
cm
rain mn
cm
humidity
%
barometer
mb
20260502194532 14 67 0.0 0.0 0.00 0.23 0.23 79 1013.2
20260502193022 14 350 0.0 0.0 0.00 0.23 0.23 78 1013.6
20260502191518 15 350 0.0 0.0 0.00 0.23 0.23 79 1013.6
20260502190052 15 350 0.0 0.0 0.00 0.23 0.23 78 1013.6
20260502184552 15 28 0.0 0.0 0.00 0.23 0.23 79 1013.9
20260502183019 14 25 0.0 0.0 0.00 0.23 0.23 83 1014.1
20260502181506 13 32 0.0 0.0 0.00 0.23 0.23 86 1014.4
20260502163006 12 15 0.0 0.0 0.03 0.20 0.20 89 1015.5
20260502161550 12 15 0.0 0.0 0.03 0.20 0.20 89 1015.6
20260502151554 12 5 0.0 0.0 0.05 0.18 0.18 89 1015.2
20260502123048 11 107 0.0 0.0 0.03 0.03 0.03 87 1014.3
20260502121536 11 107 0.0 0.0 0.03 0.03 0.03 86 1014.0
20260502114548 11 107 0.0 0.0 0.03 0.03 0.03 86 1014.2
20260502113026 11 107 0.0 0.0 0.00 0.00 0.00 85 1014.3
20260502111503 11 179 0.0 0.0 0.00 0.00 0.00 85 1014.3
20260502110059 11 179 0.0 0.0 0.00 0.00 0.00 84 1014.2
20260502110003 11 179 0.0 0.0 0.00 0.00 0.00 84 1014.3
20260502104545 12 179 0.0 0.0 0.00 0.00 0.00 83 1014.2
20260502103052 12 179 0.0 0.0 0.00 0.00 0.00 83 1014.4
20260502101529 12 179 0.0 0.0 0.00 0.00 0.00 83 1014.3
20260502070041 11 179 0.0 0.0 0.00 0.00 0.00 86 1013.7
20260502064535 11 179 0.0 0.0 0.00 0.00 0.00 86 1013.7
20260502063025 11 179 0.0 0.0 0.00 0.00 0.00 85 1013.8
20260502061502 11 179 0.0 0.0 0.00 0.00 0.00 85 1013.9
20260502060045 11 179 0.0 0.0 0.00 0.00 0.00 85 1013.9
20260502054536 11 179 0.0 0.0 0.00 0.00 0.00 85 1014.2
20260502053019 11 179 0.0 0.0 0.00 0.00 0.00 85 1014.2
20260502051507 11 179 0.0 0.0 0.00 0.00 0.00 84 1014.5
20260502050049 11 179 0.0 0.0 0.00 0.00 0.00 84 1014.6
20260502044530 11 179 0.0 0.0 0.00 0.00 0.00 85 1014.5
20260502043017 11 179 0.0 0.0 0.00 0.00 0.00 84 1014.4
20260502041558 11 179 0.0 0.0 0.00 0.00 0.00 84 1014.6
20260502041507 11 179 0.0 0.0 0.00 0.00 0.00 84 1014.6
20260502040041 11 179 0.0 0.0 0.00 0.00 0.00 84 1014.6
20260502034526 11 179 0.0 0.0 0.00 0.00 0.00 83 1014.7
20260502033015 11 179 0.0 0.0 0.00 0.00 0.00 84 1014.6
20260502031558 11 179 0.0 0.0 0.00 0.00 0.00 84 1014.6
20260502031505 11 179 0.0 0.0 0.00 0.00 0.00 84 1014.6
20260502030049 11 179 0.0 0.0 0.00 0.00 0.00 84 1014.7
20260502024537 11 179 0.0 0.0 0.00 0.00 0.00 83 1014.9
20260502023023 11 179 0.0 0.0 0.00 0.00 0.00 83 1014.9
20260502021517 11 179 0.0 0.0 0.00 0.00 0.00 83 1014.9